Terminal Aerodrome Forecast
Issued by NWS

Home | Current Version | Previous Version | Text Only | Print | Product List | Glossary On
Versions: 1 2 3 4 5 6 7 8 9 10 11 12 13 14 15 16 17 18 19 20 21 22 23 24 25
000
FTPA31 PHFO 221700
TAFJHM
TAF
PHJH 221731Z 2218/2318 07010KT P6SM FEW025 SCT060
     FM222000 05017G24KT P6SM FEW030 SCT060
     FM230500 05011KT P6SM FEW025 SCT060
      AMD NOT SKED AFT 230400=

USA.gov is the U.S. government's official web portal to all federal, state and local government web resources and services.